Overview Statistics Trail Chart Weather Telemetry Raw packets
 

This is the latest recevied weather packets stored in our database for station/object SA7AHC. If no packets are shown the sender has not sent any weather packets the latest 10 day(s).

<< 42 43 44 45 46 47 48 >>
Time Temp. Humidity Pressure Rain* Wind** Luminosity Snow
1787985506 16.11° C 95% 1006.7 hPa 0 mm - 102 W/m² -
1787984906 16.11° C 95% 1006.7 hPa 0 mm - 121 W/m² -
1787984287 16.11° C 95% 1006.7 hPa 0 mm - 98 W/m² -
1787983682 16.11° C 95% 1006.7 hPa 0 mm - 86 W/m² -
1787983083 16.11° C 95% 1006.7 hPa 0 mm - 79 W/m² -
1787982482 16.11° C 95% 1007.1 hPa 0 mm - 70 W/m² -
1787981882 15.56° C 96% 1007.2 hPa 0 mm - 65 W/m² -
1787981281 15.56° C 96% 1007.2 hPa 0 mm - 32 W/m² -
1787980681 15.56° C 96% 1007.2 hPa 0 mm - 33 W/m² -
1787980082 15.56° C 96% 1007.2 hPa 0 mm - 47 W/m² -
1787979482 15.56° C 96% 1007.2 hPa 0 mm - 28 W/m² -
1787978880 15.56° C 96% 1007.3 hPa 0 mm - 23 W/m² -
1787978276 15.56° C 96% 1007.2 hPa 0 mm - 11 W/m² -
1787977676 15.56° C 96% 1007.2 hPa 0 mm - 11 W/m² -
1787977078 15.56° C 96% 1007.3 hPa 0 mm - 0 W/m² -
1787976470 16.11° C 95% 1006.8 hPa 0 mm - 0 W/m² -
1787975853 15.56° C 95% 1006.8 hPa 0 mm - 0 W/m² -
1787975250 16.11° C 95% 1007 hPa 0 mm - 0 W/m² -
1787974650 16.11° C 95% 1007.1 hPa 0 mm - 0 W/m² -
1787974033 16.11° C 95% 1007.1 hPa 0 mm - 0 W/m² -
1787973424 16.11° C 95% 1006.7 hPa 0 mm - 0 W/m² -
1787972822 16.11° C 95% 1007 hPa 0 mm - 0 W/m² -
1787972222 16.11° C 95% 1007 hPa 0 mm - 0 W/m² -
1787971628 16.11° C 94% 1007 hPa 0 mm - 0 W/m² -
1787971021 16.11° C 94% 1007.1 hPa 0 mm - 0 W/m² -

* Rain latest hour (hover to see other rain measurements)
** Current wind speed in m/s (hover to see current wind gust speed)